Location: Penton Mewsey
(51.2167°N, 1.5167°W)
Time: 03:19:06
(UTC+00:00)

Cosmos 1656 Rocket - Pass Details

Date: 30 March 2020
Orbit: 796 x 846 km, 71.1° (Epoch: 06 June)

Event Time Altitude Azimuth Distance (km) Brightness Sun altitude
Rises 20:52:20 0° 330° (NNW) 3,418 8.0 -20.4°
Reaches altitude 10° 20:54:48 10° 331° (NNW) 2,477 7.1 -20.7°
Maximum altitude 21:00:31 86° 59° (ENE) 850 3.6 -21.4°
Enters shadow 21:02:22 45° 147° (SSE) 1,135 3.9 -21.7°
